Weather History for KHYI - August, 2013

Change the Weather History Date:

Thursday, August 8, 2013

  Actual Average (KAUS) Record (KAUS)
Temperature  
Mean Temperature 90 °F 84 °F  
Max Temperature 102 °F 97 °F 108 °F (2003)
Min Temperature 78 °F 72 °F 68 °F (1969)
Degree Days  
Heating Degree Days 0 0  
Month to date heating degree days 0  
Since 1 June heating degree days 0  
Since 1 July heating degree days 0  
Cooling Degree Days 25 19  
Month to date cooling degree days 152  
Year to date cooling degree days 1712  
Since 1 June cooling degree days 1205  
Growing Degree Days 40 (Base 50)    
Moisture  
Dew Point 66 °F    
Average Humidity 55    
Maximum Humidity 74    
Minimum Humidity 21    
Precipitation  
Precipitation 0.00 in 0.05 in 1.57 in (1982)
Month to date precipitation 0.39  
Year to date precipitation 21.46  
Snow  
Snow 0.00 in - - ()
Month to date snowfall  
Since 1 June snowfall  
Since 1 July snowfall  
Snow Depth -    
Sea Level Pressure  
Sea Level Pressure 29.88 in    
Wind  
Wind Speed 11 mph (South)    
Max Wind Speed 18 mph    
Max Gust Speed 25 mph    
Visibility 9 miles    
Events      
T = Trace of Precipitation, MM = Missing Value Source: NWS Daily Summary

Daily Weather History Graph

Daily Weather History Graph

Search for Another Location

Airport or City:

Trip Planner

Search our weather history database for the weather conditions in past years. The results will help you decide how hot, cold, wet, or windy it might be!

Date:

Astronomy

Aug. 08, 2013 Rise Set
Actual Time 6:55 AM CDT 8:18 PM CDT
Civil Twilight 6:29 AM CDT 8:44 PM CDT
Nautical Twilight 5:59 AM CDT 9:14 PM CDT
Astronomical Twilight 5:27 AM CDT 9:45 PM CDT
Moon 8:30 AM CDT (8/8) 9:12 PM CDT (8/8)
Length of Visible Light 14h 14m
Length of Day
13h 23m
Waxing Crescent, 3% of the Moon is Illuminated
Aug 8
Waxing Crescent
Aug 14
First Quarter
Aug 20
Full
Aug 28
Last Quarter
Sep 5
New

Hourly Weather History & Observations

Time (CDT) Temp. Heat Index Dew Point Humidity Pressure Visibility Wind Dir Wind Speed Gust Speed Precip Events Conditions
12:15 AM 82.4 °F 86.3 °F 69.8 °F 66% 29.92 in 10.0 mi South 11.5 mph - N/A   Clear
12:35 AM 82.4 °F 86.3 °F 69.8 °F 66% 29.92 in 10.0 mi South 12.7 mph - N/A   Clear
12:55 AM 80.6 °F 83.9 °F 69.8 °F 70% 29.92 in 10.0 mi South 11.5 mph - N/A   Clear
1:15 AM 80.6 °F 83.9 °F 69.8 °F 70% 29.93 in 10.0 mi SSE 9.2 mph - N/A   Clear
1:35 AM 80.6 °F 83.9 °F 69.8 °F 70% 29.92 in 10.0 mi South 9.2 mph - N/A   Clear
1:55 AM 80.6 °F 83.9 °F 69.8 °F 70% 29.93 in 10.0 mi South 5.8 mph - N/A   Clear
2:15 AM 78.8 °F - 69.8 °F 74% 29.92 in 10.0 mi South 8.1 mph - N/A   Clear
2:35 AM 78.8 °F - 69.8 °F 74% 29.91 in 10.0 mi South 8.1 mph - N/A   Partly Cloudy
2:55 AM 78.8 °F - 69.8 °F 74% 29.91 in 10.0 mi South 6.9 mph - N/A   Mostly Cloudy
3:15 AM 78.8 °F - 69.8 °F 74% 29.91 in 10.0 mi South 9.2 mph - N/A   Mostly Cloudy
3:35 AM 78.8 °F - 69.8 °F 74% 29.90 in 10.0 mi South 10.4 mph - N/A   Mostly Cloudy
3:55 AM 78.8 °F - 69.8 °F 74% 29.90 in 10.0 mi South 9.2 mph - N/A   Overcast
4:15 AM 78.8 °F - 69.8 °F 74% 29.89 in 10.0 mi South 10.4 mph - N/A   Overcast
4:35 AM 78.8 °F - 69.8 °F 74% 29.89 in 10.0 mi South 15.0 mph - N/A   Overcast
4:55 AM 78.8 °F - 69.8 °F 74% 29.89 in 10.0 mi South 12.7 mph - N/A   Overcast
5:15 AM 78.8 °F - 69.8 °F 74% 29.89 in 10.0 mi South 13.8 mph 18.4 mph N/A   Overcast
5:35 AM 78.8 °F - 69.8 °F 74% 29.90 in 10.0 mi SSW 10.4 mph 20.7 mph N/A   Overcast
5:55 AM 78.8 °F - 69.8 °F 74% 29.90 in 10.0 mi South 10.4 mph - N/A   Overcast
6:15 AM 78.8 °F - 69.8 °F 74% 29.91 in 10.0 mi SSW 10.4 mph - N/A   Mostly Cloudy
6:35 AM 78.8 °F - 69.8 °F 74% 29.91 in 10.0 mi South 11.5 mph - N/A   Overcast
6:50 AM 78.8 °F - 69.8 °F 74% 29.91 in 7.0 mi SSW 9.2 mph - N/A   Mostly Cloudy
7:50 AM 80.6 °F 83.9 °F 69.8 °F 70% 29.91 in 7.0 mi South 12.7 mph - N/A   Mostly Cloudy
8:50 AM 82.4 °F 85.4 °F 68.0 °F 62% 29.93 in 10.0 mi South 12.7 mph - N/A   Scattered Clouds
9:50 AM 84.2 °F 87.3 °F 68.0 °F 58% 29.93 in 10.0 mi South 12.7 mph - N/A   Partly Cloudy
10:50 AM 87.8 °F 92.6 °F 69.8 °F 55% 29.93 in 10.0 mi South 10.4 mph 17.3 mph N/A   Clear
11:50 AM 91.4 °F 96.8 °F 69.8 °F 49% 29.92 in 7.0 mi South 11.5 mph - N/A   Clear
12:50 PM 93.2 °F 98.8 °F 69.8 °F 46% 29.90 in 7.0 mi South 9.2 mph 19.6 mph N/A   Clear
1:50 PM 96.8 °F 101.8 °F 68.0 °F 39% 29.88 in 7.0 mi South 17.3 mph 23.0 mph N/A   Clear
2:50 PM 100.4 °F 104.9 °F 66.2 °F 33% 29.85 in 7.0 mi South 13.8 mph 25.3 mph N/A   Clear
3:50 PM 102.2 °F 104.2 °F 62.6 °F 27% 29.83 in 7.0 mi SSE 13.8 mph 21.9 mph N/A   Clear
4:50 PM 102.2 °F 102.4 °F 59.0 °F 24% 29.81 in 7.0 mi SSE 13.8 mph 20.7 mph N/A   Clear
5:50 PM 102.2 °F 100.9 °F 55.4 °F 21% 29.80 in 7.0 mi South 9.2 mph 17.3 mph N/A   Clear
6:53 PM 100.4 °F 98.8 °F 55.4 °F 22% 29.79 in 7.0 mi SSE 11.5 mph - N/A   Clear
6:55 PM 100.4 °F 98.8 °F 55.4 °F 22% 29.79 in - South 11.5 mph - N/A   Clear
7:15 PM 100.4 °F 98.8 °F 55.4 °F 22% 29.78 in - South 12.7 mph - N/A   Clear
7:35 PM 98.6 °F 97.2 °F 55.4 °F 24% 29.79 in - South 11.5 mph - N/A   Clear
7:55 PM 96.8 °F 97.1 °F 60.8 °F 30% 29.80 in - SSE 18.4 mph - N/A   Clear
8:15 PM 95.0 °F 96.0 °F 62.6 °F 34% 29.81 in - South 18.4 mph - N/A   Clear
8:35 PM 93.2 °F 94.1 °F 62.6 °F 36% 29.82 in - South 15.0 mph - N/A   Clear
8:55 PM 93.2 °F 93.3 °F 60.8 °F 34% 29.83 in 10.0 mi SSE 15.0 mph 21.9 mph N/A   Clear
9:15 PM 91.4 °F 92.1 °F 62.6 °F 38% 29.84 in 10.0 mi South 12.7 mph - N/A   Clear
9:35 PM 89.6 °F 90.1 °F 62.6 °F 40% 29.86 in 10.0 mi SSE 11.5 mph - N/A   Clear
9:55 PM 87.8 °F 89.4 °F 64.4 °F 46% 29.87 in 10.0 mi SSE 10.4 mph - N/A   Clear
10:15 PM 87.8 °F 89.4 °F 64.4 °F 46% 29.89 in 10.0 mi SSE 9.2 mph - N/A   Clear
10:35 PM 86.0 °F 87.3 °F 64.4 °F 48% 29.90 in 10.0 mi South 11.5 mph - N/A   Clear
10:55 PM 84.2 °F 86.6 °F 66.2 °F 55% 29.91 in 10.0 mi SE 8.1 mph - N/A   Clear
11:15 PM 82.4 °F 86.3 °F 69.8 °F 66% 29.91 in 10.0 mi SSE 11.5 mph - N/A   Clear
11:35 PM 82.4 °F 86.3 °F 69.8 °F 66% 29.91 in 10.0 mi SSE 11.5 mph - N/A   Clear
11:55 PM 80.6 °F 83.9 °F 69.8 °F 70% 29.92 in 10.0 mi SSE 10.4 mph - N/A   Clear